Location: Unspecified
(0.0000°N, 0.0000°E)
Time: 07:54:31
(UTC+00:00)

Tiangong 2 - Pass Details

Date: 14 January 2017
Orbit: 368 x 380 km, 42.8° (Epoch: 21 January)

Event Time Altitude Azimuth Distance (km) Brightness Sun altitude
Exits shadow 04:24:53 - 188° (S) 1,819 4.7 -24.1°
Reaches altitude 10° 04:26:27 10° 170° (S) 1,377 4.3 -23.8°
Maximum altitude 04:28:12 14° 136° (SE) 1,164 4.3 -23.4°
Drops below altitude 10° 04:29:57 10° 101° (E) 1,378 4.9 -23.0°
Sets 04:32:42 0° 74° (ENE) 2,229 5.7 -22.4°
